Tracking 28052 objects as of 22-Sep-2023
HD Live streaming from Space Station
objects crossing your sky now

DELTA 1 DEB

Track DELTA 1 DEB now!
10-day predictions


NORAD ID: 10823
Int'l Code: 1976-077BT
Perigee: 1,462.5 km
Apogee: 1,534.1 km
Inclination: 101.9 °
Period: 115.8 minutes
Semi major axis: 7869 km
RCS: 0.1533 m2 (medium)
Launch date: July 29, 1976
Source: United States (US)
Launch site: AIR FORCE WESTERN TEST RANGE (AFWTR)

Note: This is SATELLITE DEBRIS
Your satellite tracking list
Your tracking list is empty




NASA's NSSDC Master Catalog

Two Line Element Set (TLE):
1 10823U 76077BT  23264.74396016  .00000046  00000-0  64273-3 0  9999
2 10823 101.8502 216.7740 0045443 104.2793  14.6510 12.43650002139032
Source of the keplerian elements: AFSPC